Home   Weather   Saint-Jérôme   Past weeks

Flag for Canada Past Weather in Saint-Jérôme, Quebec, Canada — Yesterday and Last 2 Weeks

39 °F

Broken clouds.

Feels Like: 30 °F
Forecast: 36 / 43 °F
Wind: 16 mph from West

Location: Montreal / Mirabel

Current Time: Oct 23, 2016 at 10:28:28 AM

Latest Report: Oct 23, 2016 at 10:00 AM

Visibility: 45 mi

Pressure: 29.49 "Hg

Humidity: 75%

Dew Point: 32 °F

Location of Saint-JérômeLocation

Past Weather in Saint-Jérôme — Graph


Saint-Jérôme Temperature Yesterday

Maximum temperature yesterday: 46 °F (at 12:00 AM)
Minimum temperature yesterday: 37 °F (at 10:00 PM)
Average temperature yesterday: 44 °F

High & Low Weather Summary for the Past Weeks

High72 °F (Oct 18, 7:00 PM)100% (Oct 8, 9:00 AM)30.47 "Hg (Oct 8, 9:00 AM)
Low28 °F (Oct 14, 6:00 AM)38% (Oct 10, 5:00 PM)29.32 "Hg (Oct 22, 8:00 PM)
Average48 °F84%30.02 "Hg
* Reported Oct 8 9:00 AM — Oct 23 9:00 AM, Saint-Jérôme, Weather by CustomWeather, © 2016

Note: Actual official high and low records may vary slightly from our data, if they occured in-between our weather recording intervals... More about our weather records


Saint-Jérôme Weather History for the Previous 24 Hours

Scroll right to see more
Time TempWeatherWind HumidityBarometerVisibility
9:00 AM
Sun, Oct 23
39 °FBroken clouds.14 mph75%29.46 "Hg45 mi
8:00 AM37 °FMostly cloudy.14 mph81%29.44 "Hg45 mi
7:00 AM37 °FOvercast.14 mph87%29.43 "Hg25 mi
6:52 AM37 °FOvercast.15 mph87%29.43 "Hg25 mi
6:00 AM37 °FLight rain. Mostly cloudy.14 mph87%29.41 "Hg25 mi
5:00 AM37 °FOvercast.14 mph87%29.39 "Hg25 mi
4:00 AM37 °FOvercast.14 mph87%29.38 "Hg20 mi
3:00 AM37 °FMostly cloudy.10 mph87%29.37 "Hg20 mi
2:00 AM37 °FOvercast.13 mph93%29.35 "Hg20 mi
1:00 AM37 °FMostly cloudy.9 mph93%29.34 "Hg20 mi
12:00 AM37 °FLight rain. Mostly cloudy.10 mph93%29.33 "Hg15 mi
11:00 PM
Sat, Oct 22
37 °FLight rain. Overcast.9 mph93%29.32 "Hg15 mi
10:00 PM37 °FLight rain. Overcast.5 mph93%29.33 "Hg15 mi
9:00 PM39 °FLight rain. Mostly cloudy.7 mph87%29.33 "Hg20 mi
8:00 PM39 °FMostly cloudy.8 mph87%29.32 "Hg20 mi
7:00 PM39 °FLight rain. Mostly cloudy.7 mph93%29.33 "Hg8 mi
6:00 PM43 °FLight rain. Fog.6 mph93%29.33 "Hg6 mi
5:00 PM45 °FLight rain. Fog.5 mph87%29.34 "Hg5 mi
4:00 PM45 °FLight rain. Fog.5 mph87%29.35 "Hg6 mi
3:00 PM45 °FLight rain. Fog.6 mph93%29.36 "Hg5 mi
2:00 PM46 °FLight rain. Fog.6 mph87%29.36 "Hg6 mi
1:00 PM45 °FLight rain. Fog.3 mph100%29.40 "Hg6 mi
12:00 PM46 °FLight rain. Fog.6 mph93%29.42 "Hg6 mi
11:00 AM46 °FLight rain. Fog.3 mph87%29.45 "Hg5 mi
10:00 AM46 °FLight rain. Fog.5 mph87%29.46 "Hg5 mi
Weather by CustomWeather, © 2016

See weather overviewHow to use our weather pages